GFSSGP_850_spd_273.txt.gz
Wind_Speed
1 3 7 3 5 4 2 3 3 6 5 12 8 9 7 9 4 3 17 17 17 15 11 12 13 14 13 13 12 11 11 11 10 10 8 8 10 13 12 14 10 12 14 13 12 11 10 8 11
6 8 2 2 5 5 5 3 2 7 7 12 6 9 9 4 7 8 17 20 19 16 6 10 14 14 16 14 13 12 13 13 12 10 9 9 11 12 14 14 11 14 15 12 10 11 11 10 11
11 5 5 3 3 3 3 3 5 6 3 11 3 9 4 5 7 12 17 18 17 15 10 10 10 14 16 15 14 12 13 14 13 13 11 11 12 14 14 14 12 13 14 10 9 10 11 11 14
0 3 4 6 3 4 4 5 6 6 4 11 5 5 3 6 13 16 16 15 13 14 11 11 7 14 15 15 14 12 11 11 11 12 12 13 14 13 13 14 12 8 14 10 8 8 9 9 12
1 4 3 1 3 4 6 6 5 7 7 10 10 3 2 6 14 15 14 11 11 9 12 11 7 9 12 15 12 11 10 10 9 10 10 12 14 14 13 14 13 10 13 11 9 8 8 9 9
5 3 4 3 4 3 3 5 4 5 6 9 6 8 2 3 17 17 15 14 12 11 5 5 5 4 12 12 18 15 11 10 11 10 10 11 13 16 16 16 15 15 14 12 9 8 8 8 8
3 3 2 1 3 4 3 4 5 7 5 7 10 7 2 6 18 17 14 16 15 12 12 10 5 4 6 7 13 13 11 11 13 13 12 12 12 14 15 17 18 18 15 12 9 8 8 7 7
2 2 3 1 0 2 3 3 5 5 5 6 9 4 4 18 18 16 14 13 15 13 12 11 11 8 2 6 11 16 13 14 15 15 15 15 14 13 15 17 20 20 17 13 10 8 8 7 7
2 3 1 2 1 4 2 4 3 3 5 3 3 5 10 15 16 15 14 14 16 15 13 12 11 10 10 10 12 15 17 14 16 16 15 17 17 15 14 18 21 24 21 16 12 10 8 10 8
5 3 3 3 3 2 2 4 4 4 3 2 3 6 11 13 13 14 15 17 18 17 16 17 17 12 8 11 14 17 13 19 14 17 17 17 15 12 15 19 23 25 24 21 15 12 12 11 9
5 4 5 3 3 2 3 2 3 7 4 3 9 11 13 14 14 13 13 14 17 19 18 18 19 15 11 8 11 18 19 25 19 15 22 17 16 15 18 19 22 23 22 18 15 16 15 10 7
6 4 1 1 2 2 3 4 6 4 4 3 5 9 11 13 13 13 14 15 17 17 16 16 18 17 14 12 10 11 18 27 28 30 24 20 19 19 21 22 24 24 25 18 20 17 12 12 10
9 5 1 2 1 2 4 5 7 5 3 3 6 8 10 11 12 11 12 13 16 18 15 16 20 18 16 15 13 14 15 18 24 33 28 21 19 19 22 24 26 26 24 19 19 18 17 14 12
5 4 2 0 1 2 6 6 3 5 4 6 6 8 8 9 10 11 12 14 14 15 15 15 15 17 18 17 13 14 17 16 21 30 34 25 23 21 24 26 28 26 28 23 21 21 18 14 12
6 1 4 1 4 3 8 7 6 3 6 7 7 8 7 8 8 9 12 13 16 16 17 16 13 15 18 16 15 15 17 21 19 30 31 31 34 25 25 27 28 26 26 21 22 22 19 15 13
2 1 3 3 5 1 7 4 2 5 7 8 7 7 7 7 7 8 10 13 14 16 18 17 16 15 16 16 14 13 14 17 19 26 32 37 33 25 25 27 29 26 24 21 21 23 21 18 14
2 4 5 1 2 5 3 10 2 6 8 10 9 8 8 8 8 7 8 11 14 16 18 18 18 16 15 15 14 12 10 16 18 22 31 30 29 25 28 25 26 25 24 25 22 22 22 19 16
3 4 6 6 6 8 10 11 9 9 10 12 10 10 9 9 9 7 8 11 13 14 17 19 18 19 16 14 13 13 8 11 12 16 22 25 23 24 23 25 22 26 24 19 20 22 22 16 15
2 4 8 7 5 9 6 12 9 4 5 7 9 9 10 9 7 7 8 10 11 12 16 17 18 18 18 14 10 11 10 9 9 5 22 21 22 23 21 19 22 23 23 22 21 19 19 19 15
1 4 5 7 2 7 10 13 4 3 2 4 7 8 9 9 8 8 8 8 11 13 15 17 16 17 17 16 10 9 9 9 4 11 15 18 19 21 21 20 23 22 21 21 20 21 18 15 16
2 2 6 5 11 9 12 7 6 5 3 2 5 6 6 6 7 7 7 8 9 13 15 18 17 15 16 15 11 8 4 6 8 9 11 20 22 22 21 23 21 22 23 22 22 19 18 17 15
1 2 4 5 6 2 6 3 5 2 3 2 2 5 5 3 4 5 5 7 8 14 15 17 15 13 14 14 10 7 4 7 7 4 13 20 19 22 21 22 22 25 25 23 22 20 18 15 13
3 3 2 2 3 7 1 4 4 2 3 4 3 4 5 4 4 4 4 7 8 12 14 13 13 12 12 12 9 7 5 11 7 3 12 14 13 16 25 22 24 23 30 26 21 22 20 18 15
5 4 3 2 1 3 1 3 1 4 4 2 2 3 5 6 5 5 5 6 4 8 12 11 11 11 11 10 8 6 6 11 10 4 4 19 11 13 16 21 25 21 19 32 23 21 21 19 17
4 4 3 2 1 1 2 4 6 2 2 3 5 5 6 6 6 6 5 4 6 9 10 11 11 10 10 8 8 6 6 8 8 6 4 7 10 9 11 18 21 23 21 22 22 19 19 20 19
3 5 2 4 3 3 2 5 1 2 2 5 5 6 7 7 6 6 5 5 6 8 10 10 10 10 9 8 7 6 5 4 5 6 7 7 8 10 4 13 22 24 22 26 23 21 19 18 18
1 1 2 0 2 3 2 5 5 2 4 3 3 3 6 7 8 7 6 5 5 6 8 8 9 9 7 8 8 7 7 4 3 5 6 9 11 11 10 5 14 23 26 28 25 22 19 18 17
2 3 1 2 3 4 3 4 2 5 6 4 3 3 4 5 7 8 6 6 7 6 7 8 8 8 7 7 5 5 5 4 2 3 5 7 10 11 10 10 6 8 15 23 23 25 20 19 20
3 2 2 1 1 3 4 1 3 4 5 4 2 2 5 6 6 6 6 6 5 6 7 7 7 7 6 6 6 5 6 4 3 2 4 7 9 11 11 12 11 8 7 6 8 11 12 11 8
3 3 4 3 2 1 2 6 1 3 1 2 4 4 5 5 4 5 4 4 4 5 6 7 6 7 5 6 7 7 7 7 5 3 3 4 8 11 11 10 10 11 10 7 9 8 7 12 15

GFSSGP_850_spd_276.txt.gz
Wind_Speed
1 3 8 0 1 3 4 6 4 10 7 13 13 10 10 7 4 2 13 16 17 16 14 8 11 9 11 11 10 11 10 8 8 7 5 5 7 9 9 12 8 12 13 14 11 11 9 9 12
3 5 2 5 2 3 3 6 10 8 8 12 8 6 10 4 5 6 10 17 17 16 14 11 9 9 14 13 12 11 11 10 9 8 7 6 7 9 10 13 10 14 11 12 10 9 9 10 14
9 5 4 2 3 5 3 8 8 5 7 12 4 8 4 3 5 11 17 17 15 13 14 13 7 9 15 12 15 14 12 11 10 10 8 8 8 9 11 13 11 13 11 10 9 9 10 12 15
4 3 5 2 8 8 7 8 6 5 8 13 5 6 4 10 12 16 16 16 13 11 10 10 10 8 14 15 17 15 12 11 11 11 11 10 9 10 11 13 12 12 10 9 9 7 10 11 13
4 5 3 1 6 4 7 7 5 5 6 15 11 5 4 7 8 13 14 17 15 11 10 9 7 5 9 15 11 10 9 8 8 9 10 11 10 11 12 14 12 10 9 8 7 6 9 10 12
6 4 3 1 7 5 6 8 9 9 8 12 8 9 3 4 11 16 15 15 18 13 12 12 9 5 7 8 10 12 10 10 9 8 8 10 12 12 13 14 13 12 9 10 7 6 8 9 10
5 3 5 4 6 5 5 7 13 9 10 11 8 6 8 7 16 16 12 12 17 17 14 14 13 16 6 4 7 12 14 12 10 9 9 9 11 13 14 15 15 15 13 12 9 9 7 8 8
5 2 3 3 5 5 6 7 4 8 5 4 10 5 3 16 16 15 13 12 17 18 18 14 14 14 13 6 10 13 16 14 9 10 11 11 11 11 14 15 16 18 17 12 11 10 9 8 8
4 3 4 4 5 4 7 5 6 3 5 2 1 2 6 14 15 15 13 13 16 16 17 14 15 13 13 12 9 8 13 16 15 14 12 14 13 12 12 15 18 19 18 16 12 11 8 7 9
5 2 6 7 7 5 4 4 5 4 5 4 3 2 8 13 13 15 16 16 17 17 18 17 15 16 14 10 12 13 14 17 17 16 15 15 14 13 14 16 19 20 21 20 14 11 10 9 10
7 4 5 7 5 5 3 3 1 5 4 6 3 7 10 10 11 13 15 17 17 19 18 17 15 14 14 15 11 14 13 19 22 22 19 16 14 13 16 16 21 23 24 27 19 14 13 11 10
5 8 7 2 3 4 4 6 6 1 3 4 4 8 8 9 10 13 14 16 17 18 18 17 16 14 12 13 14 10 12 17 21 22 21 30 19 17 19 19 21 23 25 19 22 18 14 10 8
9 6 5 1 3 3 5 8 3 11 6 7 6 7 8 9 9 10 11 13 15 15 16 17 16 15 11 13 13 13 13 12 18 22 26 31 22 19 21 20 21 24 24 17 19 16 17 13 13
6 7 5 1 4 5 4 10 1 7 6 6 8 8 8 8 9 10 12 13 14 14 16 15 16 14 13 13 14 14 14 13 16 18 22 24 27 23 19 22 24 25 23 23 19 19 19 16 14
5 2 5 6 3 3 6 5 6 4 4 8 10 10 9 8 10 9 13 13 14 14 16 17 16 15 15 12 11 11 12 16 16 19 19 27 26 21 19 24 25 27 25 25 19 22 20 18 14
3 1 2 4 4 3 5 1 6 5 6 11 11 11 9 8 9 10 14 14 14 14 14 15 16 16 15 14 12 11 10 13 15 17 19 29 32 29 28 25 26 26 25 27 23 23 23 19 15
5 2 5 2 2 3 3 7 4 9 7 11 13 11 9 9 9 8 12 14 14 14 16 17 17 17 15 14 12 10 9 11 14 14 21 27 32 32 32 27 24 27 29 28 24 23 22 20 14
2 3 3 6 2 5 9 12 6 7 10 11 11 12 10 10 10 11 14 13 13 14 15 17 16 17 17 14 11 9 6 11 11 12 10 23 32 32 27 27 24 26 25 24 25 24 21 17 15
4 1 6 5 5 5 7 9 8 4 2 8 9 8 9 9 10 14 10 13 12 12 13 17 16 15 16 15 10 6 6 8 8 11 6 22 28 34 26 25 24 26 27 25 20 18 20 18 15
7 4 5 3 3 3 8 14 12 7 4 3 5 8 10 10 8 6 9 12 13 13 13 17 16 14 14 14 12 8 7 3 7 8 10 9 23 27 25 23 24 22 23 23 21 21 20 20 19
2 3 3 4 8 8 8 7 7 6 6 7 6 5 7 6 8 8 9 11 13 13 14 15 14 12 12 12 9 6 3 4 4 6 9 10 15 20 22 20 20 22 23 25 22 19 19 18 17
3 6 5 5 6 3 4 5 6 8 8 8 7 4 4 6 6 6 8 10 13 13 13 13 11 12 11 9 8 4 3 2 4 7 3 9 12 12 14 19 18 17 20 20 22 18 15 15 14
2 5 6 4 4 4 2 1 4 6 6 7 7 3 5 7 7 6 8 13 12 12 12 12 11 11 11 9 7 4 1 2 4 8 5 7 11 12 17 13 18 19 17 18 18 20 19 16 16
4 3 6 2 1 3 1 2 4 4 3 4 7 5 4 5 8 7 10 11 10 12 12 12 11 9 10 8 6 4 2 4 3 5 3 7 14 13 14 19 16 18 17 25 21 17 19 19 16
3 2 3 5 4 4 3 2 9 3 5 3 3 2 3 5 5 6 7 8 12 12 9 10 10 10 8 7 6 3 2 2 3 7 3 6 8 9 15 11 14 19 13 16 23 19 17 17 15
3 1 3 4 2 5 4 5 5 5 6 2 4 4 6 6 4 7 6 9 10 10 10 8 8 8 8 6 6 4 3 2 4 5 5 3 7 11 8 6 10 16 19 16 16 21 19 16 16
2 0 2 4 2 2 4 6 3 1 2 4 5 3 4 4 5 7 7 8 8 8 7 8 7 8 7 8 7 6 5 4 2 5 7 6 5 15 10 8 6 14 17 21 19 19 19 19 16
1 1 2 2 2 4 5 5 5 3 5 6 5 5 1 4 6 6 7 7 8 6 6 5 6 7 7 8 7 7 6 4 3 3 6 9 7 7 13 10 5 10 17 21 20 21 22 20 17
2 1 2 1 1 4 2 6 4 2 2 3 3 1 3 6 4 6 6 6 6 6 5 5 6 7 6 7 7 7 7 6 4 2 4 6 9 10 10 11 9 8 9 15 21 20 17 16 14
2 2 4 3 3 1 2 7 2 5 6 3 3 4 6 8 6 6 5 5 5 5 6 5 3 6 7 7 8 8 8 6 4 2 1 5 8 11 12 11 10 8 8 10 8 4 7 11 9

GFSSGP_850_spd_279.txt.gz
Wind_Speed
2 8 8 3 4 5 3 5 4 8 4 9 9 9 7 5 3 1 8 10 11 13 14 13 10 8 9 11 10 10 9 8 8 8 6 7 9 10 9 11 11 12 15 12 11 9 10 12 10
8 10 2 0 4 3 2 2 9 5 8 8 11 6 5 3 3 3 5 15 11 11 11 8 8 11 9 12 11 11 10 11 10 9 8 7 8 10 10 12 11 10 12 11 11 9 10 13 11
7 3 1 3 3 3 3 4 5 5 14 11 4 8 3 2 5 9 14 17 15 11 9 8 10 10 13 7 17 12 12 13 11 10 9 7 8 10 11 14 13 11 9 9 12 9 11 15 15
4 2 3 4 5 4 5 3 9 4 13 10 6 5 4 9 3 11 11 15 12 11 10 9 8 8 11 17 8 19 14 12 11 10 10 9 8 9 14 16 15 13 9 10 10 11 13 17 17
3 0 3 3 4 4 5 10 10 5 4 10 7 4 4 5 6 11 10 15 14 13 14 10 8 9 8 13 12 7 7 11 11 9 10 10 10 11 14 16 14 13 9 10 8 10 11 15 17
3 1 4 2 3 5 5 8 4 7 7 6 6 2 6 3 7 12 10 15 20 16 16 16 12 11 10 7 10 8 14 13 8 9 8 10 10 11 13 17 16 15 9 10 8 9 9 13 17
1 3 2 5 5 4 2 4 4 4 5 3 3 3 8 4 12 12 12 11 18 19 14 14 14 12 10 8 8 6 12 20 12 10 9 9 10 11 12 15 16 14 12 9 9 9 9 12 15
4 4 3 4 2 1 0 3 4 2 1 1 2 3 3 9 14 13 11 14 16 17 15 12 11 11 10 8 7 11 18 13 21 14 10 10 8 10 13 15 16 16 15 11 11 11 11 11 14
4 4 3 3 4 2 3 2 2 4 4 4 1 0 4 10 12 14 14 12 15 14 14 12 11 11 10 7 9 9 13 17 13 14 11 12 9 9 11 15 18 19 18 16 14 11 10 12 14
6 4 2 2 3 3 2 3 1 3 4 4 6 5 7 13 13 15 16 15 14 15 15 13 11 10 9 8 9 12 12 17 17 19 20 15 18 10 11 12 18 20 21 21 15 13 11 12 12
4 4 5 5 6 6 6 1 3 3 2 3 8 10 11 11 11 12 12 14 15 15 15 15 13 11 9 7 5 10 14 16 19 20 19 17 17 16 12 13 18 22 24 23 21 17 12 12 13
6 8 6 4 6 5 4 9 5 6 6 8 10 11 10 8 11 11 12 12 14 14 16 16 14 13 11 8 8 10 12 17 19 20 21 19 16 24 14 15 18 23 26 28 19 18 16 12 12
5 4 7 6 5 4 8 9 10 14 10 13 11 8 8 9 11 12 12 13 13 14 15 15 15 14 11 10 8 8 10 11 17 22 20 19 21 19 19 16 19 22 25 25 22 17 19 16 12
4 8 8 5 3 4 4 8 9 6 12 11 10 11 10 12 12 12 14 14 15 14 16 16 15 14 12 11 10 10 11 12 13 12 17 19 22 23 16 21 21 22 23 21 18 19 19 17 14
9 3 1 4 4 1 3 7 8 10 12 10 12 15 15 15 13 14 15 14 15 15 15 16 16 14 13 12 11 10 10 15 13 12 14 15 19 24 26 29 26 25 24 23 20 19 19 16 15
2 2 2 2 1 2 4 8 7 13 12 12 12 14 16 16 13 14 16 16 18 16 16 16 17 16 14 13 11 11 10 12 13 11 13 17 17 27 32 24 27 27 27 28 23 22 22 20 17
3 1 1 1 3 1 3 7 9 13 14 13 11 12 14 14 13 13 15 15 19 16 15 17 17 17 15 14 10 10 11 11 11 9 12 15 20 29 31 26 22 27 29 31 26 25 24 23 17
3 3 4 2 3 2 5 13 12 20 20 15 11 12 12 13 13 14 13 16 18 16 16 18 18 17 16 14 12 7 9 10 11 9 11 14 23 31 38 32 26 27 31 30 28 26 25 20 16
1 2 5 3 1 2 3 8 11 16 14 9 10 7 4 5 9 10 14 18 17 16 16 18 18 16 15 14 12 5 7 9 10 10 7 8 18 27 35 34 29 27 32 30 28 26 23 21 18
3 2 4 6 2 2 5 14 12 9 9 8 8 9 9 9 8 9 11 12 15 18 17 17 16 13 11 10 11 7 1 5 4 3 3 7 14 26 31 30 31 28 29 27 27 24 25 23 21
3 2 2 4 9 4 5 7 5 1 8 9 11 9 7 6 7 8 12 14 17 17 18 16 14 12 11 12 9 6 3 0 2 1 2 5 6 28 34 29 28 26 28 26 24 22 22 25 23
2 1 2 4 6 2 4 4 6 4 6 6 14 12 7 8 8 8 10 13 15 17 16 15 13 12 11 11 9 6 1 1 3 2 2 3 0 29 25 28 27 23 25 26 24 20 21 21 21
2 1 1 2 2 2 4 4 7 2 6 7 12 11 8 7 8 9 11 13 14 13 15 14 13 13 10 10 9 6 2 3 4 4 2 8 12 6 22 28 26 24 25 25 23 21 19 19 19
1 1 1 2 2 3 3 4 6 3 4 2 5 9 7 5 7 9 10 11 15 14 15 13 12 11 9 9 9 6 4 3 4 5 3 10 12 11 10 13 19 20 19 21 22 22 20 19 18
0 3 4 5 4 4 3 3 9 5 3 4 4 2 4 5 8 8 9 12 14 14 12 12 11 9 8 8 8 5 4 4 2 5 5 7 12 14 11 17 11 14 18 19 19 22 21 21 18
2 2 4 4 2 5 1 5 3 3 4 3 1 3 7 9 6 10 11 10 12 12 11 10 9 8 9 9 7 6 4 5 4 2 6 7 10 13 14 11 12 14 16 13 15 18 18 20 18
1 2 2 6 2 3 3 7 3 2 1 2 1 2 6 4 8 11 11 10 9 10 11 9 8 7 6 7 6 6 5 3 3 3 3 6 9 13 11 13 10 10 15 16 14 18 24 19 15
1 2 3 3 1 4 5 6 5 3 2 4 4 4 3 5 6 8 11 10 8 8 9 8 8 7 5 7 6 4 5 4 2 1 3 4 6 11 13 9 5 2 15 19 16 17 17 19 20
1 1 2 2 3 4 1 6 7 6 6 8 9 7 5 7 7 6 8 8 7 6 7 7 6 5 6 6 6 6 5 3 1 2 3 4 6 7 14 10 5 3 11 19 18 15 15 15 18
2 2 4 4 4 1 3 7 3 5 6 7 9 7 6 6 6 6 6 5 6 5 5 5 4 4 5 7 7 7 6 5 3 1 3 5 8 8 13 14 12 9 13 13 18 18 16 7 8

GFSSGP_850_spd_285.txt.gz
Wind_Speed
1 6 6 3 4 5 0 2 1 1 1 2 2 3 4 3 1 2 4 7 11 13 13 11 8 8 11 9 10 11 11 10 10 10 9 10 11 10 10 9 12 14 14 14 14 14 13 9 8
5 6 3 3 5 3 4 2 2 2 3 5 2 2 1 1 2 2 5 10 12 15 15 14 11 10 11 10 10 13 12 12 11 11 11 11 11 13 13 12 16 14 16 15 13 14 12 11 9
6 3 1 4 3 4 4 3 3 1 4 2 2 2 2 2 4 3 8 12 13 14 15 15 13 12 12 12 12 10 14 15 15 13 12 11 11 13 14 15 16 16 15 15 13 14 13 10 11
3 2 5 4 2 2 3 2 3 3 1 3 2 1 2 4 3 5 9 12 13 15 17 16 13 12 12 14 12 9 14 16 18 17 15 13 12 13 15 17 18 15 13 13 15 15 13 12 15
3 3 4 4 2 2 2 1 6 1 1 2 1 2 3 6 6 8 11 15 17 17 18 18 16 13 12 13 12 13 10 18 18 21 18 16 15 13 15 19 20 17 11 12 13 17 16 13 16
3 3 4 3 3 2 3 1 3 1 2 3 2 1 4 6 6 8 12 16 18 18 17 16 15 14 13 13 14 11 11 14 20 23 23 14 12 13 15 21 24 20 16 12 14 18 17 15 16
5 4 4 5 4 1 4 2 2 3 2 5 2 2 4 7 8 10 15 17 18 18 17 16 15 13 13 12 12 13 15 12 15 18 21 23 17 16 14 21 26 27 20 13 17 17 19 16 16
2 4 3 3 5 4 2 1 1 2 4 4 4 4 4 6 10 12 17 18 17 16 16 14 13 13 12 13 11 12 15 17 15 16 19 26 24 23 18 20 21 25 18 16 15 17 18 18 18
1 4 3 5 6 2 2 1 2 3 6 5 5 8 8 9 9 14 17 16 15 14 14 14 13 13 12 13 13 12 15 16 13 18 16 19 22 22 17 21 17 16 21 14 14 14 19 18 20
4 3 5 2 3 3 3 1 2 3 6 6 10 14 13 12 13 16 15 14 14 15 14 14 14 13 13 13 14 13 14 16 14 16 23 22 23 21 17 20 17 18 15 12 14 16 17 18 22
2 3 5 2 3 3 2 2 1 2 6 10 13 14 15 14 16 15 14 15 17 18 18 17 16 14 13 13 15 16 15 18 15 14 22 23 22 24 24 17 15 18 16 18 18 20 19 21 21
3 2 3 5 3 3 3 3 4 9 13 13 15 13 14 17 15 14 14 15 16 17 18 19 19 16 14 14 14 17 16 17 18 15 19 19 23 27 29 28 14 18 23 25 23 23 22 23 20
3 2 3 3 3 3 4 7 6 15 15 17 17 16 16 16 14 12 13 14 15 15 17 19 20 20 16 14 14 16 17 15 18 20 17 20 21 20 28 35 26 14 25 30 30 29 27 23 17
3 4 3 1 2 4 3 4 4 5 2 6 13 16 16 16 15 16 16 15 14 15 18 21 21 20 19 15 14 15 17 17 17 17 19 20 22 20 23 34 39 18 20 39 32 26 25 23 24
7 2 3 4 1 3 4 6 8 13 8 9 11 14 14 16 17 19 21 19 16 16 19 22 20 19 19 18 14 13 16 17 18 18 19 16 20 20 18 33 34 26 17 18 18 26 25 27 24
3 3 3 2 1 1 5 8 6 7 11 13 13 15 15 16 17 19 20 20 18 17 18 20 20 20 19 18 16 14 14 16 17 17 17 16 16 21 21 24 32 31 23 19 20 25 19 26 24
5 2 3 5 2 0 3 7 6 5 8 15 17 17 16 18 18 18 17 18 18 17 17 19 20 21 20 19 17 15 13 13 14 14 16 16 15 18 24 28 28 26 24 22 19 19 25 22 23
3 2 3 5 2 2 5 18 15 25 21 23 20 15 11 16 14 13 12 13 15 16 17 19 20 22 20 18 17 16 13 11 11 12 12 15 17 18 23 30 31 27 25 23 23 23 20 23 23
2 1 3 4 2 4 5 10 16 23 18 23 18 11 9 11 12 12 13 10 14 16 16 19 21 21 20 18 17 11 13 11 11 12 13 14 14 18 22 28 35 34 28 33 27 26 27 27 25
2 2 4 5 2 3 6 16 13 6 7 14 13 8 7 9 10 11 12 12 14 16 16 20 20 19 18 16 16 14 11 10 10 10 13 14 15 16 20 29 32 35 33 31 35 29 29 28 26
1 2 1 3 8 2 8 6 5 3 5 5 8 6 6 8 9 9 11 13 13 14 17 18 18 17 16 14 14 11 8 7 7 8 11 11 14 18 20 26 31 36 35 30 39 33 33 32 31
2 1 1 3 5 3 4 4 4 4 8 5 10 11 10 8 7 9 11 12 12 13 15 17 17 15 14 13 11 10 6 5 5 8 5 9 10 17 21 25 31 36 36 33 35 30 33 33 33
1 1 1 1 2 3 1 2 6 3 4 5 9 7 6 6 7 8 10 12 12 12 13 16 15 14 12 11 10 7 4 4 5 7 6 6 4 10 14 24 33 40 37 32 33 28 36 33 32
1 2 4 3 2 2 1 2 5 3 3 4 5 4 4 7 6 7 9 11 10 12 13 14 14 13 11 12 9 6 4 1 5 5 7 6 3 6 10 21 33 34 37 31 32 28 28 32 32
2 3 4 6 4 4 2 2 8 5 6 5 7 8 5 7 5 6 8 9 9 10 11 12 11 11 11 11 10 6 3 2 4 5 5 2 2 5 9 26 29 34 40 31 30 27 26 28 28
2 2 4 4 1 5 1 5 4 5 7 6 8 9 8 9 7 6 7 7 7 7 9 10 9 9 9 9 8 6 3 1 3 4 4 1 4 6 4 13 19 25 28 28 24 22 22 21 23
2 2 2 6 2 3 3 7 7 5 8 9 12 10 13 10 8 6 6 7 7 6 7 8 9 8 7 8 6 7 5 4 2 2 3 2 4 6 4 5 18 26 23 24 24 23 23 22 23
1 4 3 3 1 4 5 5 5 5 7 7 10 15 13 9 7 7 5 6 5 5 6 7 7 7 7 8 8 8 6 4 2 0 2 1 3 6 4 4 7 17 21 21 21 17 20 21 22
1 1 3 3 3 4 1 6 7 7 6 8 13 13 11 9 8 5 5 5 3 5 5 5 5 6 6 8 7 6 6 4 3 1 3 3 3 6 9 10 10 10 12 17 17 15 15 16 17
1 2 3 4 4 0 2 7 2 6 5 7 12 12 11 10 9 6 5 4 3 3 5 6 5 6 7 8 8 9 8 7 2 1 2 3 5 6 9 8 9 10 14 13 14 13 12 14 20

GFSSGP_850_spd_288.txt.gz
Wind_Speed
1 5 5 4 4 5 2 3 1 3 2 2 1 1 2 1 2 3 2 5 8 11 12 13 14 13 11 11 12 10 11 11 12 10 10 10 11 11 10 10 10 10 11 13 15 16 16 11 7
5 6 3 3 5 3 4 4 4 2 2 3 1 1 1 1 3 3 4 7 8 10 11 12 12 12 11 13 12 13 12 13 14 13 12 12 12 12 12 11 12 14 13 14 15 15 12 10 8
6 3 2 4 4 4 4 3 3 1 1 2 2 2 2 1 2 3 5 9 12 14 15 16 15 14 12 13 12 13 11 16 14 16 15 13 13 13 13 13 15 17 16 15 12 13 12 10 9
3 2 5 4 3 3 3 2 3 1 1 2 1 4 4 5 3 4 9 11 14 17 19 18 16 16 15 14 14 14 12 12 14 17 20 17 15 14 15 15 16 18 18 15 13 14 13 10 12
2 3 4 3 3 2 2 2 3 1 3 2 2 3 4 6 8 8 10 12 16 18 20 19 18 16 15 15 15 14 12 12 15 18 17 17 18 16 14 16 19 20 17 14 17 14 13 14 16
2 3 3 2 3 2 2 4 3 2 3 3 2 2 4 6 7 8 10 14 18 18 18 19 19 17 16 15 15 14 12 11 13 18 21 20 21 19 14 16 20 23 22 16 18 18 15 17 16
5 3 3 3 3 2 4 6 4 3 2 3 2 1 4 7 7 9 13 17 18 18 17 15 16 17 16 16 15 15 14 13 12 12 16 23 20 20 14 9 18 25 24 20 20 22 18 18 17
4 4 3 3 3 4 3 4 2 3 3 3 3 2 4 10 9 11 15 19 19 17 16 15 15 15 16 16 16 15 15 14 17 14 14 17 25 24 18 17 26 28 27 22 22 24 21 19 18
3 3 3 4 6 3 2 2 2 2 5 5 6 8 11 12 11 12 16 16 16 16 16 16 16 16 16 17 16 16 15 16 16 16 12 16 19 27 26 26 30 23 25 24 19 23 22 18 17
3 3 5 3 5 3 3 2 2 2 4 6 9 11 14 14 13 14 16 14 13 14 15 17 18 17 16 16 17 18 17 15 16 13 21 14 16 18 22 24 28 16 18 19 20 21 21 20 20
1 3 2 2 2 2 3 3 4 3 5 10 6 5 9 12 14 16 14 13 14 15 16 18 19 19 18 18 17 17 18 16 16 14 18 19 20 19 19 18 16 15 23 18 15 16 22 21 19
1 1 1 2 2 1 2 3 5 12 9 6 9 11 12 12 14 14 13 12 13 15 15 17 21 20 19 18 18 19 18 17 16 19 20 24 18 28 24 20 17 13 20 13 12 16 22 20 17
2 1 0 1 2 4 7 9 8 19 16 12 13 13 12 13 15 13 13 13 14 15 15 16 20 21 20 19 18 19 18 17 16 17 27 19 19 31 24 28 24 19 16 21 20 22 23 21 19
3 2 1 1 3 4 3 5 5 4 4 7 8 9 10 12 13 15 15 16 18 19 17 17 21 21 21 21 19 19 18 17 16 16 17 27 21 21 18 28 28 29 14 22 24 26 26 20 23
4 1 3 3 2 3 6 7 9 15 7 8 9 10 12 13 13 14 14 17 19 19 18 18 20 21 21 21 19 19 19 18 16 16 19 17 19 19 19 23 30 31 20 18 32 30 29 24 25
3 4 4 0 2 3 4 9 2 3 8 13 12 12 14 14 13 12 14 16 15 16 17 17 20 22 22 21 20 19 18 17 16 15 16 16 16 16 20 21 20 29 31 15 16 19 22 29 26
6 1 1 6 2 2 2 8 4 2 8 15 16 18 19 15 10 9 12 12 12 14 15 17 20 21 22 21 19 18 16 15 16 13 14 14 18 13 14 17 21 28 28 20 12 11 21 25 26
2 1 3 5 2 2 5 19 15 28 18 20 21 13 15 10 8 9 10 11 11 12 15 16 19 21 22 20 18 17 16 12 13 12 11 12 15 15 14 18 20 29 24 22 20 12 16 19 23
4 2 3 4 3 4 5 12 17 21 14 19 21 17 14 7 5 7 9 11 10 12 14 15 18 19 20 19 18 15 12 11 10 13 11 12 13 15 17 18 21 25 29 27 22 23 21 21 23
2 0 4 5 2 3 6 20 11 5 5 5 7 9 9 7 5 7 9 10 10 11 12 15 17 19 18 17 16 16 13 8 6 7 9 12 13 16 18 20 20 23 26 19 22 23 27 24 27
0 2 1 2 8 1 8 7 6 2 4 3 3 6 8 7 7 8 8 9 9 9 11 15 16 17 16 15 14 12 10 4 1 7 9 10 13 15 17 16 19 25 32 29 25 26 26 31 29
3 1 2 2 5 3 4 5 5 5 8 4 6 9 11 10 8 9 9 9 9 8 10 13 15 15 14 13 13 12 8 0 0 6 8 8 12 11 14 20 20 26 29 33 28 24 29 30 31
1 1 1 2 2 3 4 3 7 4 4 4 7 7 6 7 6 8 8 9 9 8 9 11 13 14 12 12 12 10 6 2 2 6 8 8 7 7 17 20 23 27 28 32 32 31 30 29 30
3 2 3 3 2 3 3 3 5 2 3 5 4 9 6 6 6 8 9 9 9 8 9 10 12 11 12 12 10 9 4 0 2 6 8 5 3 4 12 9 21 26 28 30 33 29 33 29 30
2 2 4 6 4 4 1 2 9 5 4 5 7 11 8 7 7 8 9 9 9 8 8 9 9 9 9 10 9 7 4 3 3 5 7 5 4 4 7 6 22 28 32 29 27 26 29 25 26
1 2 5 4 1 5 1 5 4 5 7 9 10 10 9 7 9 9 8 8 8 8 7 8 7 8 8 9 8 6 4 4 3 3 4 4 2 3 8 13 20 23 28 28 24 27 29 26 27
2 1 3 7 1 3 3 7 8 4 8 9 13 11 10 8 8 8 7 7 6 7 6 6 6 6 7 8 7 7 5 3 4 2 1 2 2 3 6 8 18 24 25 28 22 24 24 23 22
1 4 3 3 0 4 5 6 5 4 5 5 8 13 9 8 6 7 8 6 5 5 4 4 4 6 7 7 7 7 5 4 3 1 1 4 4 5 4 2 11 13 22 28 25 21 18 19 19
1 1 3 2 3 4 1 6 7 7 7 7 9 10 10 8 8 7 7 6 5 3 3 3 3 5 6 7 8 8 6 4 2 1 3 4 4 7 4 5 7 15 20 22 20 18 17 18 19
1 3 4 4 4 1 2 7 1 6 5 6 13 11 11 10 9 9 7 7 5 3 2 1 3 4 6 8 7 8 7 5 2 3 4 3 5 5 8 10 10 11 21 19 17 13 13 13 14

GFSSGP_850_spd_291.txt.gz
Wind_Speed
1 4 6 4 3 4 1 3 0 2 2 1 2 2 1 1 2 2 1 3 6 9 10 11 11 12 10 9 6 10 11 12 12 13 13 12 12 13 13 12 11 10 13 14 14 17 19 14 10
3 6 3 3 4 2 3 2 4 1 2 3 0 1 0 2 3 4 4 5 8 10 12 14 14 14 13 13 11 9 9 13 15 15 15 14 14 14 14 13 12 12 14 16 16 18 17 13 9
5 3 2 4 3 4 4 3 3 2 3 1 1 2 1 2 2 3 3 8 10 13 15 16 17 17 16 15 15 14 11 8 15 17 16 17 16 15 15 14 15 16 16 18 19 18 15 13 10
3 2 5 4 3 3 3 2 4 4 3 2 1 4 4 4 3 3 8 10 13 17 19 19 18 18 17 16 16 16 14 12 11 17 19 15 17 17 16 16 17 19 18 20 17 15 14 12 10
2 3 3 2 3 3 3 2 4 4 3 1 1 2 3 5 7 7 8 10 14 18 19 18 17 17 17 16 16 17 17 11 11 12 17 19 18 19 17 18 17 21 22 21 14 13 15 13 13
2 3 3 2 3 2 3 4 3 2 2 1 2 3 4 2 5 6 8 11 15 15 15 16 16 16 16 16 16 16 16 15 12 14 14 19 19 19 17 18 18 20 23 19 17 17 16 17 17
4 3 2 2 3 3 3 6 4 4 3 5 4 2 3 3 4 6 8 13 15 15 14 14 15 15 16 16 16 16 16 16 15 13 14 14 20 24 22 20 15 18 23 19 17 19 18 21 18
3 5 2 3 3 4 4 5 3 5 4 5 5 5 4 4 6 7 11 15 15 15 14 14 15 15 15 16 16 15 15 16 16 15 16 16 16 19 26 21 17 16 20 24 22 22 21 22 20
3 3 1 4 5 2 4 3 4 3 4 6 8 10 8 9 8 9 12 14 14 14 15 15 15 16 15 16 16 17 16 16 15 17 18 17 16 17 24 25 18 20 20 18 21 25 25 21 18
3 3 5 4 3 2 4 4 3 2 5 8 13 16 13 10 9 10 12 12 11 11 12 13 15 18 17 16 15 17 17 16 15 14 16 18 14 13 16 23 25 19 18 17 25 28 22 20 18
2 3 2 2 2 1 2 3 4 2 5 16 11 7 8 8 9 10 11 11 11 10 10 12 15 18 20 20 18 17 18 17 15 15 15 12 19 15 14 12 14 14 19 23 21 19 18 18 19
2 1 2 2 2 2 2 4 5 12 11 5 7 8 10 9 9 9 10 10 11 11 13 15 18 20 21 20 19 17 17 18 16 15 14 19 17 19 19 13 10 8 14 23 23 19 23 20 19
2 3 2 2 2 4 6 8 8 20 22 18 14 14 11 10 8 9 11 12 14 15 16 16 18 19 21 21 19 19 18 18 17 14 15 15 17 23 18 19 13 8 16 12 19 21 21 22 18
3 3 2 3 3 4 4 4 3 3 4 5 13 11 11 11 9 10 11 13 16 18 18 18 18 19 21 20 20 19 18 17 16 13 14 15 17 20 14 19 19 20 13 20 25 16 19 20 20
4 1 3 3 2 2 5 4 7 13 10 7 7 8 11 11 12 12 12 14 16 18 17 17 17 19 21 21 20 19 18 17 16 12 14 14 13 17 18 16 19 23 21 18 20 25 23 28 25
2 3 2 1 1 2 2 8 3 1 6 9 11 11 12 12 14 13 13 13 12 13 13 15 16 19 21 22 20 19 17 16 15 12 12 12 12 11 15 14 17 12 23 22 27 34 30 32 26
5 2 2 5 4 3 1 7 5 4 5 14 22 19 18 18 13 9 9 9 9 9 10 13 16 19 21 20 18 17 15 15 13 10 9 11 9 9 9 12 14 24 23 31 14 32 30 28 30
3 3 3 5 3 2 5 17 14 26 23 29 25 19 12 10 7 6 7 8 9 9 10 12 16 19 20 19 17 15 14 14 11 8 7 9 9 11 14 10 11 16 19 26 21 14 22 29 32
2 0 3 4 1 4 6 10 19 18 13 17 17 14 9 8 6 6 7 9 10 10 11 13 15 18 18 17 16 12 11 9 8 6 7 8 10 10 14 12 10 21 17 21 22 15 22 25 30
1 1 4 4 1 2 6 18 8 4 3 3 0 3 3 6 5 6 7 9 10 11 12 13 16 17 16 16 14 14 11 5 2 1 1 6 9 9 10 13 11 16 17 25 20 20 22 23 28
2 3 2 4 6 1 7 6 5 2 3 2 1 1 2 5 6 7 8 10 11 12 12 13 15 15 13 13 13 10 9 2 1 2 2 5 10 9 7 10 17 14 22 16 23 26 30 27 24
3 1 1 2 4 3 5 4 4 4 6 0 3 3 5 6 7 7 8 10 11 12 11 13 14 13 11 11 10 8 5 1 2 2 2 4 5 4 6 10 14 18 24 26 27 24 25 29 29
1 1 1 1 1 2 5 2 7 4 2 1 2 4 4 0 4 6 8 10 10 11 11 12 13 11 10 9 8 7 4 1 0 1 2 2 2 5 4 9 13 18 25 29 31 25 23 27 25
4 2 3 3 2 3 2 2 5 2 3 2 3 2 2 1 3 5 7 9 9 10 11 11 12 10 9 9 8 6 2 2 3 2 3 1 2 2 2 8 15 19 22 30 29 26 24 21 22
1 2 3 5 4 3 1 2 8 5 5 4 6 7 1 2 3 5 7 8 9 9 10 10 10 9 8 8 6 5 4 5 5 4 4 1 4 2 3 6 8 19 24 26 26 26 20 23 24
4 3 4 5 1 5 1 5 4 5 4 7 11 10 5 4 3 5 5 6 8 8 9 9 8 6 7 8 7 5 3 3 6 3 3 2 5 5 6 9 8 17 24 24 24 23 25 21 29
3 2 2 7 1 3 3 7 8 4 8 9 15 11 7 5 5 4 5 6 6 7 8 8 6 5 5 7 7 6 3 1 3 3 4 3 2 1 5 8 10 17 21 23 25 20 21 22 22
1 4 3 3 1 3 5 6 5 2 7 4 5 6 4 4 5 5 5 5 5 6 7 7 5 4 5 6 6 6 5 2 1 1 3 4 5 2 6 7 13 21 21 21 21 15 16 21 19
1 0 3 3 3 4 1 6 6 6 5 6 6 4 5 6 6 7 6 5 4 4 5 5 4 4 6 7 7 6 5 4 4 2 4 6 6 4 8 10 11 18 15 18 22 15 16 18 18
2 3 4 4 4 1 3 7 2 7 5 5 10 10 8 10 10 9 8 7 5 3 4 3 3 4 5 6 8 7 5 3 4 4 6 7 7 10 11 12 17 16 17 20 20 19 14 14 17